If you wish to contribute or participate in the discussions about articles you are invited to join SKYbrary as a registered user

 Actions

Avignon-Caumont Airport

From SKYbrary Wiki

LFMV /
Revision as of 20:14, 16 February 2015 by Timo.Kouwenhoven (talk | contribs) (LF Airports CSV import)
(diff) ← Older revision | Latest revision (diff) | Newer revision → (diff)
Airport
ICAO: LFMV – IATA: AVN
Summary
Name Avignon-Caumont Airport
Region Europe
Territory France FR.gif
Location , Provence-Alpes-Cote d'Azur
Serving Avignon
Elevation 37.795 m
124 ft
124 ft37.795 m
Type medium airport
Coordinates 43° 54' 26.28" N, 4° 54' 6.59" E
Runways
Designator Length Width Surface ROPS
17/35 1880 m6,167.979 ft
45 m147.638 ft
ASP yes/yes


METAR
Observation LFMV 261030Z AUTO VRB03KT 9999 -RA BKN011/// BKN050/// OVC068/// ///CB 09/08 Q1021 TEMPO VRB15G25KT 2500 TSRA
Station CAUMONT
Date/Time 26 January 2020 10:30:00
Wind direction °
Wind speed 03 kts
Lowest cloud amount broken clouds
Temperature 9°C
Dew point 8°C
Humidity 93%
QNH 1021 hPa
Weather condition light rain